FW8702 Weather Reports


Display with metric or nautical units.
time (UTC)temp
F
wind
direction
speed
MPH
gust
MPH
rain 1hr
in
rain 24hr
in
rain mn
in
humidity
%
barometer
mb
20260905184556 75 279 0.0 0.0 0.00 0.00 0.00 79 1018.7
20260905183054 75 279 0.0 1.0 0.00 0.00 0.00 79 1018.3
20260905181549 77 279 0.0 2.0 0.00 0.00 0.00 78 1018.0
20260905180057 78 3 0.0 2.0 0.00 0.00 0.00 76 1017.9
20260905174604 79 284 0.0 1.0 0.00 0.00 0.00 74 1017.7
20260905173016 80 275 0.0 4.0 0.00 0.00 0.00 75 1017.5
20260905171546 82 71 1.0 2.0 0.00 0.00 0.00 72 1017.4
20260905170038 83 273 0.0 0.0 0.00 0.00 0.00 72 1017.4
20260905164525 84 273 0.0 2.0 0.00 0.00 0.00 67 1017.3
20260905163119 85 284 0.0 2.0 0.00 0.00 0.00 66 1017.3
20260905161602 87 46 0.0 0.0 0.00 0.00 0.00 59 1017.3
20260905160046 87 46 0.0 1.0 0.00 0.00 0.00 56 1017.3
20260905154548 87 86 0.0 2.0 0.00 0.00 0.00 52 1017.3
20260905153020 87 75 0.0 3.0 0.00 0.00 0.00 55 1017.3
20260905151539 87 100 1.0 2.0 0.00 0.00 0.00 52 1017.4
20260905150013 87 82 1.0 3.0 0.00 0.00 0.00 53 1017.4
20260905144550 87 85 1.0 3.0 0.00 0.00 0.00 54 1017.5
20260905143044 88 108 2.0 4.0 0.00 0.00 0.00 52 1017.5
20260905141505 88 223 1.0 3.0 0.00 0.00 0.00 53 1017.4
20260905140045 89 113 1.0 4.0 0.00 0.00 0.00 52 1017.4
20260905134557 87 269 0.0 6.0 0.00 0.00 0.00 57 1017.6
20260905133001 88 232 3.0 5.0 0.00 0.00 0.00 54 1017.7
20260905131533 87 217 0.0 5.0 0.00 0.00 0.00 54 1017.9
20260905130041 88 188 2.0 5.0 0.00 0.00 0.00 54 1018.0
20260905124604 87 234 0.0 4.0 0.00 0.00 0.00 54 1018.1
20260905123003 87 227 2.0 4.0 0.00 0.00 0.00 53 1018.2
20260905121605 86 279 1.0 6.0 0.00 0.00 0.00 55 1018.3
20260905120042 86 83 0.0 4.0 0.00 0.00 0.00 54 1018.4
20260905114546 85 280 0.0 3.0 0.00 0.00 0.00 56 1018.4
20260905113015 85 298 1.0 4.0 0.00 0.00 0.00 56 1018.7
20260905111605 84 242 2.0 5.0 0.00 0.00 0.00 57 1018.7
20260905110015 84 252 2.0 4.0 0.00 0.00 0.00 60 1018.6
20260905104524 84 233 0.0 2.0 0.00 0.00 0.00 60 1018.5
20260905103013 81 226 1.0 5.0 0.00 0.00 0.00 60 1018.7
20260905101557 81 248 2.0 4.0 0.00 0.00 0.00 61 1018.7
20260905100031 79 277 2.0 7.0 0.00 0.00 0.00 63 1018.6
20260905094600 80 277 2.0 8.0 0.00 0.00 0.00 64 1018.9
20260905093106 80 245 2.0 5.0 0.00 0.00 0.00 66 1018.7
20260905091524 82 200 0.0 2.0 0.00 0.00 0.00 62 1018.7
20260905090036 80 84 1.0 4.0 0.00 0.00 0.00 62 1018.7
20260905084512 80 208 2.0 4.0 0.00 0.00 0.00 61 1018.7
20260905083018 78 272 3.0 4.0 0.00 0.00 0.00 61 1018.5
20260905081550 79 279 1.0 7.0 0.00 0.00 0.00 63 1018.6
20260905080036 77 285 0.0 3.0 0.00 0.00 0.00 67 1018.7
20260905074548 77 272 3.0 5.0 0.00 0.00 0.00 63 1018.4
20260905073021 75 281 2.0 4.0 0.00 0.00 0.00 69 1018.3
20260905071555 74 294 2.0 4.0 0.00 0.00 0.00 73 1018.4
20260905070024 74 308 0.0 4.0 0.00 0.00 0.00 73 1018.4
20260905064538 73 281 1.0 3.0 0.00 0.00 0.00 74 1018.3
20260905063100 72 314 1.0 3.0 0.00 0.00 0.00 75 1018.3
20260905061529 72 3 1.0 3.0 0.00 0.00 0.00 74 1018.2
20260905060019 72 341 1.0 5.0 0.00 0.00 0.00 74 1018.2
20260905054554 71 279 1.0 4.0 0.00 0.00 0.00 76 1018.1
20260905053101 69 317 1.0 6.0 0.00 0.00 0.00 79 1018.2
20260905051558 68 284 0.0 6.0 0.00 0.00 0.00 80 1017.9
20260905050031 68 281 0.0 2.0 0.00 0.00 0.00 79 1017.7
20260905044603 69 281 0.0 3.0 0.00 0.00 0.00 79 1017.5
20260905043025 69 281 0.0 5.0 0.00 0.00 0.00 78 1017.6
20260905041519 70 304 1.0 2.0 0.00 0.00 0.00 76 1017.4
20260905040040 71 296 0.0 2.0 0.00 0.00 0.00 75 1017.4
20260905034524 71 281 0.0 5.0 0.00 0.00 0.00 77 1017.6
20260905033016 69 261 1.0 5.0 0.00 0.00 0.00 80 1017.4
20260905031521 68 332 1.0 5.0 0.00 0.00 0.00 81 1017.6
20260905030027 68 269 0.0 3.0 0.00 0.00 0.00 80 1017.7
20260905024602 69 268 0.0 2.0 0.00 0.00 0.00 78 1017.7
20260905023024 71 326 1.0 3.0 0.00 0.00 0.00 77 1017.7
20260905021512 71 275 1.0 4.0 0.00 0.00 0.00 76 1017.6
20260905020051 71 279 0.0 4.0 0.00 0.00 0.00 77 1017.8
20260905014518 70 324 1.0 5.0 0.00 0.00 0.00 80 1018.0
20260905013103 70 339 1.0 4.0 0.00 0.00 0.00 80 1018.1
20260905011506 70 329 0.0 3.0 0.00 0.00 0.00 81 1018.1
20260905004529 68 262 0.0 3.0 0.00 0.00 0.00 83 1018.1
20260905003048 68 289 0.0 4.0 0.00 0.00 0.00 82 1018.2
20260905001518 68 275 0.0 1.0 0.00 0.00 0.00 83 1018.3
20260905000045 68 269 1.0 2.0 0.00 0.00 0.00 83 1018.4
20260904234526 68 276 0.0 2.0 0.00 0.00 0.00 83 1018.5
20260904233025 68 273 1.0 2.0 0.00 0.00 0.00 83 1018.5
20260904231607 68 302 0.0 3.0 0.00 0.00 0.00 83 1018.7
20260904230034 68 276 2.0 4.0 0.00 0.00 0.00 82 1018.5
20260904224547 68 310 0.0 1.0 0.00 0.00 0.00 82 1018.6
20260904223038 69 68 0.0 2.0 0.00 0.00 0.00 82 1018.7
20260904221533 69 314 0.0 1.0 0.00 0.00 0.00 81 1018.8
20260904220104 70 319 0.0 2.0 0.00 0.00 0.00 81 1018.7
20260904214547 70 294 0.0 0.0 0.00 0.00 0.00 81 1018.8
20260904213025 70 285 0.0 2.0 0.00 0.00 0.00 80 1018.8
20260904211516 71 283 0.0 0.0 0.00 0.00 0.00 80 1018.9
20260904210022 71 283 0.0 3.0 0.00 0.00 0.00 80 1018.8
20260904204515 71 81 0.0 4.0 0.00 0.00 0.00 81 1018.8
20260904203103 70 88 1.0 2.0 0.00 0.00 0.00 80 1019.0
20260904201511 71 295 1.0 4.0 0.00 0.00 0.00 79 1019.0
20260904200026 72 282 1.0 2.0 0.00 0.00 0.00 79 1018.9
20260904194502 72 292 0.0 2.0 0.00 0.00 0.00 79 1018.8
20260904193057 72 285 0.0 0.0 0.00 0.00 0.00 79 1018.7
20260904191533 73 296 0.0 2.0 0.00 0.00 0.00 78 1018.6
20260904190045 74 338 0.0 3.0 0.00 0.00 0.00 77 1018.4